Weather History for Clarksville, TN

Change the Weather History Date:

Tuesday, July 16, 2013

  Actual Average Record
Temperature  
Mean Temperature 81 °F -  
Max Temperature 92 °F - 105 °F (1980)
Min Temperature 69 °F - 53 °F (1967)
Degree Days  
Heating Degree Days 0    
Month to date heating degree days 0  
Since 1 July heating degree days 0  
Cooling Degree Days 16    
Month to date cooling degree days 165  
Growing Degree Days 30 (Base 50)    
Moisture  
Dew Point 70 °F    
Average Humidity 72    
Maximum Humidity 97    
Minimum Humidity 47    
Precipitation  
Precipitation 0.00 in - 1.17 in (2010)
Month to date precipitation 2.67  
Sea Level Pressure  
Sea Level Pressure 30.27 in    
Wind  
Wind Speed 2 mph (East)    
Max Wind Speed 8 mph    
Max Gust Speed 14 mph    
Visibility 10 miles    
Events      
T = Trace of Precipitation, MM = Missing Value Source: NWS Daily Summary

Daily Weather History Graph

Daily Weather History Graph

Search for Another Location

Airport:

Trip Planner

Search our weather history database for the weather conditions in past years. The results will help you decide how hot, cold, wet, or windy it might be!

Date:

Astronomy

Jul. 16, 2013 Rise Set
Actual Time 5:43 AM CDT 8:07 PM CDT
Civil Twilight 5:13 AM CDT 8:37 PM CDT
Nautical Twilight 4:37 AM CDT 9:13 PM CDT
Astronomical Twilight 3:57 AM CDT 9:53 PM CDT
Moon 1:52 PM CDT (7/16) 12:08 AM CDT (7/16)
Length of Visible Light 15h 23m
Length of Day
14h 23m
First Quarter, 56% of the Moon is Illuminated
Jul 16
First Quarter
Jul 22
Full
Jul 29
Last Quarter
Aug 6
New
Aug 14
First Quarter

Hourly Weather History & Observations

Time (CDT) Temp. Heat Index Dew Point Humidity Pressure Visibility Wind Dir Wind Speed Gust Speed Precip Events Conditions
12:52 AM 73.0 °F - 69.1 °F 87% 30.24 in 10.0 mi East 3.5 mph - N/A   Clear
1:52 AM 72.0 °F - 69.1 °F 91% 30.24 in 10.0 mi ESE 3.5 mph - N/A   Scattered Clouds
2:52 AM 72.0 °F - 69.1 °F 91% 30.24 in 10.0 mi Calm Calm - N/A   Clear
3:52 AM 71.1 °F - 68.0 °F 90% 30.25 in 10.0 mi Calm Calm - N/A   Clear
4:52 AM 71.1 °F - 68.0 °F 90% 30.26 in 10.0 mi Calm Calm - N/A   Clear
5:52 AM 70.0 °F - 68.0 °F 93% 30.27 in 10.0 mi Calm Calm - N/A   Clear
6:52 AM 75.0 °F - 70.0 °F 84% 30.29 in 10.0 mi Calm Calm - N/A   Clear
7:52 AM 78.1 °F - 70.0 °F 76% 30.30 in 10.0 mi Variable 3.5 mph - N/A   Clear
8:52 AM 81.0 °F 84.4 °F 70.0 °F 69% 30.32 in 10.0 mi SSE 5.8 mph - N/A   Clear
9:52 AM 84.0 °F 88.4 °F 70.0 °F 63% 30.32 in 10.0 mi Variable 4.6 mph - N/A   Clear
10:52 AM 86.0 °F 90.1 °F 69.1 °F 57% 30.31 in 10.0 mi East 3.5 mph - N/A   Clear
11:52 AM 88.0 °F 92.1 °F 69.1 °F 53% 30.30 in 10.0 mi SE 3.5 mph - N/A   Clear
12:52 PM 89.1 °F 93.7 °F 69.1 °F 52% 30.29 in 10.0 mi Variable 4.6 mph - N/A   Clear
1:52 PM 89.1 °F 92.9 °F 68.0 °F 50% 30.27 in 10.0 mi Calm Calm - N/A   Partly Cloudy
2:52 PM 91.0 °F 95.2 °F 68.0 °F 47% 30.26 in 10.0 mi East 3.5 mph - N/A   Partly Cloudy
3:52 PM 91.9 °F 96.9 °F 69.1 °F 47% 30.25 in 10.0 mi Calm Calm - N/A   Partly Cloudy
4:52 PM 91.0 °F 95.6 °F 69.1 °F 48% 30.24 in 10.0 mi Variable 3.5 mph - N/A   Clear
5:52 PM 91.0 °F 95.6 °F 69.1 °F 48% 30.23 in 10.0 mi Variable 3.5 mph - N/A   Partly Cloudy
6:52 PM 89.1 °F 93.7 °F 69.1 °F 52% 30.23 in 10.0 mi SE 3.5 mph - N/A   Clear
7:52 PM 84.9 °F 90.1 °F 71.1 °F 63% 30.24 in 10.0 mi ENE 3.5 mph - N/A   Clear
8:52 PM 80.1 °F 83.8 °F 72.0 °F 76% 30.25 in 10.0 mi ENE 3.5 mph - N/A   Scattered Clouds
9:52 PM 81.0 °F 85.2 °F 72.0 °F 74% 30.27 in 10.0 mi ENE 3.5 mph - N/A   Clear
10:52 PM 75.0 °F - 72.0 °F 90% 30.28 in 10.0 mi Calm Calm - N/A   Clear
11:52 PM 75.9 °F - 72.0 °F 87% 30.28 in 10.0 mi Calm Calm - N/A   Clear